sat.trackr.live / text

‹ back to catalog

STARLINK-5988

NORAD 56320 · 2023-058D

PAYLOAD ACTIVE UNKNOWN

§ Identity

Operator
Country
US
Launch date
2023-04-27
Launch site
AFWTR
Launch vehicle
Mass (kg)
RCS (m²)

Purposes: comms

External: N2YO · Heavens-Above · Gunter

§ Orbital elements

Epoch: 2026-05-25T00:09:29.373408Z

Period
95.64 min
Inclination
97.4473°
Eccentricity
0.0002204
Mean motion
15.05656506 rev/d
Perigee alt
548.0 km
Apogee alt
551.0 km
Semi-major
6,927.6 km
B*
-8.6308e-5
RAAN
144.9076°
Arg perigee
96.5066°
Mean anomaly
263.6412°
Rev number
16,926

§ Raw data

STARLINK-59881 56320U 23058D   26145.00658997 -.00001304  00000+0 -86308-4 0  99942 56320  97.4473 144.9076 0002204  96.5066 263.6412 15.05656506169260

JSON: /api/v1/satellites/56320 · /tle

For live sub-satellite position, see the globe view (requires WebGL).

§ Visibility from observer

Set your observer location to see the next 7 days of passes ≥ 10°. The values pass through the URL so the page stays shareable.

No JS? Fill the form by hand. The geolocation button needs JavaScript.